Weather History for Hazlehurst, GA

Change the Weather History Date:

Friday, January 18, 2013

  Actual Average Record
Temperature  
Mean Temperature 46 °F -  
Max Temperature 78 °F 61 °F 78 °F (2013)
Min Temperature 36 °F 53 °F 30 °F (2014)
Degree Days  
Heating Degree Days 19    
Moisture  
Dew Point 33 °F    
Average Humidity 68    
Maximum Humidity 100    
Minimum Humidity 32    
Precipitation  
Precipitation 0.00 in - - ()
Sea Level Pressure  
Sea Level Pressure 30.39 in    
Wind  
Wind Speed 7 mph (NNE)    
Max Wind Speed 14 mph    
Max Gust Speed 21 mph    
Visibility 10 miles    
Events      
Averages and records for this station are not official NWS values.
T = Trace of Precipitation, MM = Missing Value Source: NWS Daily Summary

Daily Weather History Graph

Daily Weather History Graph

Search for Another Location

Airport:

Trip Planner

Search our weather history database for the weather conditions in past years. The results will help you decide how hot, cold, wet, or windy it might be!

Date:

Astronomy

Jan. 18, 2013 Rise Set
Actual Time 7:30 AM EST 5:52 PM EST
Civil Twilight 7:04 AM EST 6:18 PM EST
Nautical Twilight 6:34 AM EST 6:48 PM EST
Astronomical Twilight 6:05 AM EST 7:17 PM EST
Moon 11:38 AM EST 12:13 AM EST
Length of Visible Light 11h 14m
Length of Day
10h 21m
Waxing Crescent, 47% of the Moon is Illuminated
Jan 18
Waxing Crescent
Jan 18
First Quarter
Jan 26
Full
Feb 3
Last Quarter
Feb 10
New

Hourly Weather History & Observations

Time (EST) Temp. Windchill Dew Point Humidity Pressure Visibility Wind Dir Wind Speed Gust Speed Precip Events Conditions
12:15 AM 39.9 °F 35.1 °F 36.1 °F 86% 30.17 in 10.0 mi NW 6.9 mph - N/A   Overcast
12:35 AM 40.1 °F 35.3 °F 36.7 °F 88% 30.18 in 10.0 mi NNW 6.9 mph - N/A   Mostly Cloudy
12:55 AM 40.1 °F 35.3 °F 37.0 °F 89% 30.19 in 10.0 mi NNW 6.9 mph - N/A   Mostly Cloudy
1:15 AM 39.7 °F 35.6 °F 37.4 °F 91% 30.19 in 10.0 mi NNW 5.8 mph - N/A   Scattered Clouds
1:35 AM 39.7 °F 35.6 °F 37.6 °F 92% 30.21 in 10.0 mi NNW 5.8 mph - N/A   Clear
1:55 AM 39.7 °F 34.9 °F 37.8 °F 93% 30.21 in 10.0 mi North 6.9 mph - N/A   Clear
2:15 AM 40.1 °F 35.3 °F 38.3 °F 93% 30.23 in 10.0 mi North 6.9 mph - N/A   Clear
2:35 AM 40.1 °F 36.1 °F 38.5 °F 94% 30.24 in 10.0 mi North 5.8 mph - N/A   Clear
2:55 AM 40.1 °F 36.1 °F 38.7 °F 95% 30.25 in 10.0 mi North 5.8 mph - N/A   Clear
3:15 AM 39.7 °F 35.6 °F 38.7 °F 96% 30.26 in 10.0 mi North 5.8 mph - N/A   Clear
3:35 AM 39.4 °F 35.2 °F 38.7 °F 97% 30.27 in 10.0 mi North 5.8 mph - N/A   Clear
3:55 AM 39.2 °F 35.0 °F 38.7 °F 98% 30.27 in 10.0 mi North 5.8 mph - N/A   Clear
4:15 AM 39.2 °F 35.9 °F 38.7 °F 98% 30.28 in 10.0 mi North 4.6 mph - N/A   Clear
4:35 AM 38.7 °F 35.2 °F 38.7 °F 100% 30.29 in 10.0 mi North 4.6 mph - N/A   Clear
4:55 AM 38.3 °F 33.9 °F 38.5 °F 100% 30.29 in 10.0 mi North 5.8 mph - N/A   Clear
5:15 AM 38.3 °F 33.9 °F 38.3 °F 100% 30.30 in 10.0 mi North 5.8 mph - N/A   Clear
5:35 AM - - - N/A% 30.32 in 10.0 mi North 5.8 mph - N/A   Clear
5:55 AM 37.8 °F 34.2 °F 37.9 °F 100% 30.32 in 10.0 mi North 4.6 mph - N/A   Clear
6:15 AM 37.6 °F 32.3 °F 37.8 °F 100% 30.33 in 10.0 mi North 6.9 mph - N/A   Clear
6:35 AM 37.4 °F 32.1 °F 37.6 °F 100% 30.35 in 10.0 mi North 6.9 mph - N/A   Clear
6:55 AM 37.2 °F 32.6 °F 37.2 °F 100% 30.36 in 10.0 mi North 5.8 mph - N/A   Clear
7:15 AM 36.7 °F 32.0 °F 36.7 °F 100% 30.37 in 10.0 mi North 5.8 mph - N/A   Clear
7:55 AM 36.5 °F 31.8 °F 36.5 °F 100% 30.39 in 10.0 mi NNE 5.8 mph - N/A   Clear
8:15 AM 37.2 °F 32.6 °F 37.4 °F 100% 30.40 in 10.0 mi NNE 5.8 mph - N/A   Clear
8:35 AM 38.5 °F 34.1 °F 38.3 °F 99% 30.42 in 10.0 mi NE 5.8 mph - N/A   Clear
8:55 AM 40.1 °F 35.3 °F 38.7 °F 95% 30.42 in 10.0 mi NNE 6.9 mph - N/A   Clear
9:15 AM 41.9 °F 37.5 °F 39.0 °F 90% 30.44 in 10.0 mi NNE 6.9 mph - N/A   Clear
9:35 AM 43.7 °F 38.6 °F 38.7 °F 82% 30.44 in 10.0 mi NNE 9.2 mph - N/A   Clear
9:55 AM 45.0 °F 38.9 °F 37.9 °F 76% 30.45 in 10.0 mi NNE 12.7 mph 20.7 mph N/A   Clear
10:15 AM 46.2 °F 40.8 °F 36.7 °F 69% 30.46 in 10.0 mi NNE 11.5 mph 17.3 mph N/A   Clear
10:55 AM 48.4 °F - 35.2 °F 60% 30.46 in 10.0 mi NNE 13.8 mph - N/A   Clear
11:15 AM 49.5 °F - 34.3 °F 56% 30.46 in 10.0 mi NNE 12.7 mph 17.3 mph N/A   Clear
11:35 AM 50.2 °F - 32.7 °F 51% 30.45 in 10.0 mi NNE 12.7 mph 19.6 mph N/A   Clear
11:55 AM 50.9 °F - 32.7 °F 50% 30.44 in 10.0 mi NNE 8.1 mph 19.6 mph N/A   Clear
12:15 PM 52.0 °F - 32.5 °F 48% 30.44 in 10.0 mi NNE 12.7 mph - N/A   Clear
12:35 PM 52.9 °F - 31.8 °F 45% 30.43 in 10.0 mi NE 9.2 mph 17.3 mph N/A   Clear
12:55 PM 53.6 °F - 31.1 °F 42% 30.43 in 10.0 mi NNE 11.5 mph 17.3 mph N/A   Clear
1:15 PM 54.1 °F - 30.4 °F 40% 30.42 in 10.0 mi NE 11.5 mph 18.4 mph N/A   Clear
1:35 PM 54.7 °F - 30.4 °F 40% 30.41 in 10.0 mi NE 12.7 mph 16.1 mph N/A   Clear
1:55 PM 55.8 °F - 30.0 °F 37% 30.41 in 10.0 mi NE 12.7 mph 16.1 mph N/A   Clear
2:15 PM 55.8 °F - 29.3 °F 36% 30.41 in 10.0 mi NE 11.5 mph 19.6 mph N/A   Clear
2:35 PM 55.8 °F - 28.8 °F 36% 30.41 in 10.0 mi ENE 9.2 mph 16.1 mph N/A   Clear
2:55 PM 56.1 °F - 28.8 °F 35% 30.41 in 10.0 mi NNE 10.4 mph 16.1 mph N/A   Clear
3:15 PM 56.1 °F - 28.2 °F 34% 30.41 in 10.0 mi ENE 9.2 mph 17.3 mph N/A   Clear
3:35 PM 55.9 °F - 27.0 °F 33% 30.41 in 10.0 mi East 8.1 mph - N/A   Clear
3:55 PM 56.1 °F - 26.8 °F 32% 30.42 in 10.0 mi East 6.9 mph - N/A   Clear
4:15 PM 55.8 °F - 26.8 °F 33% 30.42 in 10.0 mi ENE 8.1 mph - N/A   Clear
4:35 PM 55.4 °F - 27.7 °F 35% 30.42 in 10.0 mi NNE 6.9 mph - N/A   Clear
4:55 PM 54.9 °F - 27.3 °F 35% 30.42 in 10.0 mi ENE 8.1 mph - N/A   Clear
5:15 PM 53.6 °F - 27.1 °F 36% 30.42 in 10.0 mi NE 5.8 mph - N/A   Clear
5:35 PM 52.3 °F - 27.3 °F 38% 30.43 in 10.0 mi NE 3.5 mph - N/A   Clear
5:55 PM 50.7 °F - 28.0 °F 42% 30.44 in 10.0 mi NE 3.5 mph - N/A   Clear
6:15 PM 49.1 °F - 28.6 °F 45% 30.44 in 10.0 mi Calm Calm - N/A   Clear
6:35 PM 46.8 °F - 29.8 °F 52% 30.45 in 10.0 mi Calm Calm - N/A   Clear
6:55 PM 44.4 °F - 30.0 °F 57% 30.45 in 10.0 mi Calm Calm - N/A   Clear
7:15 PM 43.3 °F - 30.2 °F 60% 30.46 in 10.0 mi Calm Calm - N/A   Clear
7:35 PM 42.8 °F - 30.2 °F 61% 30.46 in 10.0 mi Calm Calm - N/A   Clear
7:55 PM 42.6 °F - 30.2 °F 61% 30.47 in 10.0 mi Calm Calm - N/A   Clear
8:15 PM 41.7 °F - 30.0 °F 63% 30.47 in 10.0 mi Calm Calm - N/A   Clear
8:35 PM 41.2 °F 39.2 °F 30.2 °F 65% 30.47 in 10.0 mi ENE 3.5 mph - N/A   Clear
8:55 PM 40.6 °F - 30.4 °F 67% 30.47 in 10.0 mi Calm Calm - N/A   Clear
9:15 PM 40.3 °F - 30.0 °F 67% 30.47 in 10.0 mi Calm Calm - N/A   Clear
9:35 PM 40.1 °F 36.9 °F 30.4 °F 68% 30.47 in 10.0 mi ENE 4.6 mph - N/A   Clear
9:55 PM 41.0 °F 38.0 °F 30.0 °F 65% 30.47 in 10.0 mi East 4.6 mph - N/A   Clear
10:15 PM 40.6 °F 37.5 °F 29.8 °F 65% 30.47 in 10.0 mi East 4.6 mph - N/A   Clear
10:35 PM 41.0 °F 37.1 °F 29.1 °F 63% 30.47 in 10.0 mi East 5.8 mph - N/A   Clear
10:55 PM 40.6 °F 37.5 °F 28.8 °F 63% 30.47 in 10.0 mi East 4.6 mph - N/A   Clear
11:15 PM 40.6 °F 36.7 °F 28.2 °F 61% 30.47 in 10.0 mi East 5.8 mph - N/A   Clear
11:35 PM 41.0 °F 37.1 °F 27.7 °F 59% 30.47 in 10.0 mi East 5.8 mph - N/A   Clear
11:55 PM 40.6 °F 37.5 °F 27.7 °F 60% 30.46 in 10.0 mi East 4.6 mph - N/A   Clear